Flag for Canada Weather past 2 weeks in Abbotsford, British Columbia, Canada

Now
54 °F

Scattered clouds.


Feels Like: 52 °F
Forecast: 42 / 55 °F
Wind: 7 mph from Southwest

Location: Abbotsford


UV Index: 3 (Moderate)

Visibility: 30 mi


Pressure: 30.04 "Hg

Humidity: 47%

Dew point: 34 °F

Location of AbbotsfordLocation

Historic Weather in Abbotsford

°F

Abbotsford temperature yesterday

Maximum temperature yesterday: 54 °F (at 4:00 PM)
Minimum temperature yesterday: 45 °F (at 10:00 PM)
Average temperature yesterday: 49 °F

Past Weeks' High & Low Weather Summary

 TemperatureHumidityPressure
High66 °F (Apr 7, 4:00 PM)100% (Apr 5, 5:51 PM)30.34 "Hg (Apr 5, 5:51 PM)
Low37 °F (Apr 10, 4:00 AM)22% (Apr 13, 3:00 PM)29.69 "Hg (Apr 17, 8:00 PM)
Average50 °F75%30.09 "Hg
* Reported Apr 3 6:00 PM — Apr 18 6:00 PM, Abbotsford, Weather by CustomWeather, © 2014

Note: Actual official high and low records may vary slightly from our data, if they occured in-between our weather recording intervals... More about our weather records

Advertising

Historic Weather Conditions — Data for Previous 24 hours

 ConditionsComfort  
Time TempWeatherWind HumidityBarometerVisibility
6:00 PM
Apr 18
55 °FBroken clouds.6 mph44%30.06 "Hg30 mi
5:00 PM55 °FBroken clouds.8 mph47%30.07 "Hg30 mi
4:00 PM54 °FBroken clouds.10 mph51%30.09 "Hg25 mi
3:00 PM55 °FBroken clouds.10 mph47%30.09 "Hg20 mi
2:00 PM55 °FPartly sunny.14 mph51%30.10 "Hg25 mi
1:00 PM52 °FBroken clouds.14 mph62%30.11 "Hg25 mi
12:00 PM52 °FPartly sunny.14 mph58%30.09 "Hg20 mi
11:00 AM50 °FPartly sunny.13 mph62%30.09 "Hg15 mi
10:00 AM50 °FBroken clouds.15 mph67%30.07 "Hg15 mi
9:00 AM46 °FPartly sunny.13 mph71%30.05 "Hg15 mi
8:00 AM45 °FPartly sunny.9 mph87%30.03 "Hg15 mi
7:00 AM45 °FPassing clouds.10 mph81%30.01 "Hg20 mi
6:00 AM43 °FOvercast.9 mph93%29.97 "Hg20 mi
5:00 AM45 °FLight rain. Overcast.10 mph87%29.95 "Hg10 mi
4:00 AM45 °FLight rain. Overcast.12 mph93%29.93 "Hg10 mi
3:00 AM45 °FMostly cloudy.10 mph93%29.90 "Hg10 mi
2:00 AM45 °FLight rain. Overcast.10 mph93%29.88 "Hg8 mi
1:00 AM45 °FLight rain. Mostly cloudy.9 mph93%29.87 "Hg8 mi
12:00 AM45 °FLight rain. Mostly cloudy.13 mph100%29.85 "Hg6 mi
11:00 PM
Apr 17
45 °FLight rain. Mostly cloudy.14 mph93%29.83 "Hg6 mi
10:00 PM45 °FLight rain. Mostly cloudy.13 mph93%29.80 "Hg6 mi
9:00 PM46 °FLight rain. Cloudy.18 mph93%29.75 "Hg6 mi
8:50 PM46 °FLight rain. More clouds than sun.20 mph93%29.73 "Hg6 mi
8:00 PM48 °FRain. Fog.10 mph94%29.69 "Hg3 mi
Weather by CustomWeather, © 2014

See weather overview